Location: Mentone
(34.5413°N, 85.5351°W)
Time: 15:28:44
(UTC-05:00)

ATLAS 5 CENTAUR R/B - Pass Details

Date: 30 June 2018
Orbit: 600 x 1060 km, 63.4° (Epoch: 17 July)

Event Time Altitude Azimuth Distance (km) Brightness Sun altitude
Rises 22:24:15 0° 270° (W) 2,900 5.5 -23.2°
Reaches altitude 10° 22:29:17 10° 319° (NW) 2,094 5.3 -23.8°
Maximum altitude 22:29:29 10° 322° (NW) 2,097 5.4 -23.9°
Drops below altitude 10° 22:29:40 10° 324° (NW) 2,103 5.4 -23.9°
Sets 22:35:07 0° 12° (NNE) 3,172 5.8 -24.5°
